Year,Month,Day,Hour,Minute,Value (Times are PST for temperature in C)
2020,01,17,00,00,-1.10
2020,01,17,00,01,-1.10
2020,01,17,00,02,-1.10
2020,01,17,00,03,-1.10
2020,01,17,00,04,-1.10
2020,01,17,00,05,-1.10
2020,01,17,00,06,-1.10
2020,01,17,00,07,-1.10
2020,01,17,00,08,-1.10
2020,01,17,00,09,-1.10
2020,01,17,00,10,-1.10
2020,01,17,00,11,-1.10
2020,01,17,00,12,-1.10
2020,01,17,00,13,-1.10
2020,01,17,00,14,-1.20
2020,01,17,00,15,-1.20
2020,01,17,00,16,-1.20
2020,01,17,00,17,-1.20
2020,01,17,00,18,-1.20
2020,01,17,00,19,-1.20
2020,01,17,00,20,-1.20
2020,01,17,00,21,-1.20
2020,01,17,00,22,-1.20
2020,01,17,00,23,-1.20
2020,01,17,00,24,-1.20
2020,01,17,00,25,-1.20
2020,01,17,00,26,-1.20
2020,01,17,00,27,-1.20
2020,01,17,00,28,-1.20
2020,01,17,00,29,-1.20
2020,01,17,00,30,-1.20
2020,01,17,00,31,-1.20
2020,01,17,00,32,-1.20
2020,01,17,00,33,-1.30
2020,01,17,00,34,-1.30
2020,01,17,00,35,-1.30
2020,01,17,00,36,-1.30
2020,01,17,00,37,-1.30
2020,01,17,00,38,-1.30
2020,01,17,00,39,-1.30
2020,01,17,00,40,-1.30
2020,01,17,00,41,-1.30
2020,01,17,00,42,-1.30
2020,01,17,00,43,-1.30
2020,01,17,00,44,-1.30
2020,01,17,00,45,-1.30
2020,01,17,00,46,-1.30
2020,01,17,00,47,-1.40
2020,01,17,00,48,-1.40
2020,01,17,00,49,-1.40
2020,01,17,00,50,-1.40
2020,01,17,00,51,-1.40
2020,01,17,00,52,-1.40
2020,01,17,00,53,-1.40
2020,01,17,00,54,-1.40
2020,01,17,00,55,-1.40
2020,01,17,00,56,-1.40
2020,01,17,00,57,-1.40
2020,01,17,00,58,-1.40
2020,01,17,00,59,-1.40
2020,01,17,01,00,-1.40
2020,01,17,01,01,-1.40
2020,01,17,01,02,-1.40
2020,01,17,01,03,-1.40
2020,01,17,01,04,-1.50
2020,01,17,01,05,-1.50
2020,01,17,01,06,-1.50
2020,01,17,01,07,-1.50
2020,01,17,01,08,-1.50
2020,01,17,01,09,-1.50
2020,01,17,01,10,-1.50
2020,01,17,01,11,-1.60
2020,01,17,01,12,-1.50
2020,01,17,01,13,-1.60
2020,01,17,01,14,-1.60
2020,01,17,01,15,-1.60
2020,01,17,01,16,-1.60
2020,01,17,01,17,-1.50
2020,01,17,01,18,-1.50
2020,01,17,01,19,-1.50
2020,01,17,01,20,-1.50
2020,01,17,01,21,-1.50
2020,01,17,01,22,-1.50
2020,01,17,01,23,-1.50
2020,01,17,01,24,-1.60
2020,01,17,01,25,-1.50
2020,01,17,01,26,-1.60
2020,01,17,01,27,-1.60
2020,01,17,01,28,-1.50
2020,01,17,01,29,-1.60
2020,01,17,01,30,-1.60
2020,01,17,01,31,-1.50
2020,01,17,01,32,-1.50
2020,01,17,01,33,-1.50
2020,01,17,01,34,-1.50
2020,01,17,01,35,-1.50
2020,01,17,01,36,-1.50
2020,01,17,01,37,-1.50
2020,01,17,01,38,-1.50
2020,01,17,01,39,-1.50
2020,01,17,01,40,-1.50
2020,01,17,01,41,-1.50
2020,01,17,01,42,-1.50
2020,01,17,01,43,-1.50
2020,01,17,01,44,-1.50
2020,01,17,01,45,-1.60
2020,01,17,01,46,-1.60
2020,01,17,01,47,-1.60
2020,01,17,01,48,-1.60
2020,01,17,01,49,-1.60
2020,01,17,01,50,-1.60
2020,01,17,01,51,-1.60
2020,01,17,01,52,-1.60
2020,01,17,01,53,-1.60
2020,01,17,01,54,-1.60
2020,01,17,01,55,-1.60
2020,01,17,01,56,-1.60
2020,01,17,01,57,-1.60
2020,01,17,01,58,-1.60
2020,01,17,01,59,-1.60
2020,01,17,02,00,-1.60
2020,01,17,02,01,-1.70
2020,01,17,02,02,-1.70
2020,01,17,02,03,-1.70
2020,01,17,02,04,-1.70
2020,01,17,02,05,-1.70
2020,01,17,02,06,-1.70
2020,01,17,02,07,-1.70
2020,01,17,02,08,-1.70
2020,01,17,02,09,-1.70
2020,01,17,02,10,-1.80
2020,01,17,02,11,-1.80
2020,01,17,02,12,-1.80
2020,01,17,02,13,-1.80
2020,01,17,02,14,-1.80
2020,01,17,02,15,-1.80
2020,01,17,02,16,-1.80
2020,01,17,02,17,-1.80
2020,01,17,02,18,-1.80
2020,01,17,02,19,-1.80
2020,01,17,02,20,-1.80
2020,01,17,02,21,-1.80
2020,01,17,02,22,-1.80
2020,01,17,02,23,-1.80
2020,01,17,02,24,-1.80
2020,01,17,02,25,-1.80
2020,01,17,02,26,-1.80
2020,01,17,02,27,-1.80
2020,01,17,02,28,-1.90
2020,01,17,02,29,-1.90
2020,01,17,02,30,-1.90
2020,01,17,02,31,-1.90
2020,01,17,02,32,-1.90
2020,01,17,02,33,-1.90
2020,01,17,02,34,-1.90
2020,01,17,02,35,-2.00
2020,01,17,02,36,-2.00
2020,01,17,02,37,-2.00
2020,01,17,02,38,-2.00
2020,01,17,02,39,-2.00
2020,01,17,02,40,-2.00
2020,01,17,02,41,-2.10
2020,01,17,02,42,-2.10
2020,01,17,02,43,-2.10
2020,01,17,02,44,-2.10
2020,01,17,02,45,-2.10
2020,01,17,02,46,-2.10
2020,01,17,02,47,-2.10
2020,01,17,02,48,-2.10
2020,01,17,02,49,-2.10
2020,01,17,02,50,-2.20
2020,01,17,02,51,-2.20
2020,01,17,02,52,-2.30
2020,01,17,02,53,-2.30
2020,01,17,02,54,-2.30
2020,01,17,02,55,-2.30
2020,01,17,02,56,-2.30
2020,01,17,02,57,-2.30
2020,01,17,02,58,-2.40
2020,01,17,02,59,-2.40
2020,01,17,03,00,-2.50
2020,01,17,03,01,-2.50
2020,01,17,03,02,-2.60
2020,01,17,03,03,-2.60
2020,01,17,03,04,-2.70
2020,01,17,03,05,-2.70
2020,01,17,03,06,-2.80
2020,01,17,03,07,-2.80
2020,01,17,03,08,-2.90
2020,01,17,03,09,-2.90
2020,01,17,03,10,-2.90
2020,01,17,03,11,-2.90
2020,01,17,03,12,-3.00
2020,01,17,03,13,-3.00
2020,01,17,03,14,-3.00
2020,01,17,03,15,-3.00
2020,01,17,03,16,-3.00
2020,01,17,03,17,-3.10
2020,01,17,03,18,-3.10
2020,01,17,03,19,-3.10
2020,01,17,03,20,-3.20
2020,01,17,03,21,-3.20
2020,01,17,03,22,-3.20
2020,01,17,03,23,-3.30
2020,01,17,03,24,-3.30
2020,01,17,03,25,-3.30
2020,01,17,03,26,-3.30
2020,01,17,03,27,-3.30
2020,01,17,03,28,-3.30
2020,01,17,03,29,-3.30
2020,01,17,03,30,-3.30
2020,01,17,03,31,-3.30
2020,01,17,03,32,-3.30
2020,01,17,03,33,-3.30
2020,01,17,03,34,-3.30
2020,01,17,03,35,-3.40
2020,01,17,03,36,-3.40
2020,01,17,03,37,-3.40
2020,01,17,03,38,-3.40
2020,01,17,03,39,-3.40
2020,01,17,03,40,-3.50
2020,01,17,03,41,-3.60
2020,01,17,03,42,-3.60
2020,01,17,03,43,-3.60
2020,01,17,03,44,-3.70
2020,01,17,03,45,-3.70
2020,01,17,03,46,-3.70
2020,01,17,03,47,-3.70
2020,01,17,03,48,-3.70
2020,01,17,03,49,-3.70
2020,01,17,03,50,-3.70
2020,01,17,03,51,-3.70
2020,01,17,03,52,-3.70
2020,01,17,03,53,-3.70
2020,01,17,03,54,-3.80
2020,01,17,03,55,-3.80
2020,01,17,03,56,-3.80
2020,01,17,03,57,-3.80
2020,01,17,03,58,-3.80
2020,01,17,03,59,-3.80
2020,01,17,04,00,-3.80
2020,01,17,04,01,-3.80
2020,01,17,04,02,-3.80
2020,01,17,04,03,-3.80
2020,01,17,04,04,-3.80
2020,01,17,04,05,-3.80
2020,01,17,04,06,-3.80
2020,01,17,04,07,-3.80
2020,01,17,04,08,-3.80
2020,01,17,04,09,-3.80
2020,01,17,04,10,-3.80
2020,01,17,04,11,-3.80
2020,01,17,04,12,-3.80
2020,01,17,04,13,-3.90
2020,01,17,04,14,-3.90
2020,01,17,04,15,-3.90
2020,01,17,04,16,-3.90
2020,01,17,04,17,-3.90
2020,01,17,04,18,-3.90
2020,01,17,04,19,-3.90
2020,01,17,04,20,-3.90
2020,01,17,04,21,-4.00
2020,01,17,04,22,-4.00
2020,01,17,04,23,-4.10
2020,01,17,04,24,-4.20
2020,01,17,04,25,-4.20
2020,01,17,04,26,-4.20
2020,01,17,04,27,-4.30
2020,01,17,04,28,-4.20
2020,01,17,04,29,-4.30
2020,01,17,04,30,-4.30
2020,01,17,04,31,-4.30
2020,01,17,04,32,-4.30
2020,01,17,04,33,-4.40
2020,01,17,04,34,-4.40
2020,01,17,04,35,-4.50
2020,01,17,04,36,-4.50
2020,01,17,04,37,-4.60
2020,01,17,04,38,-4.60
2020,01,17,04,39,-4.60
2020,01,17,04,40,-4.60
2020,01,17,04,41,-4.70
2020,01,17,04,42,-4.70
2020,01,17,04,43,-4.70
2020,01,17,04,44,-4.70
2020,01,17,04,45,-4.70
2020,01,17,04,46,-4.80
2020,01,17,04,47,-4.80
2020,01,17,04,48,-4.80
2020,01,17,04,49,-4.80
2020,01,17,04,50,-4.90
2020,01,17,04,51,-4.90
2020,01,17,04,52,-4.80
2020,01,17,04,53,-4.90
2020,01,17,04,54,-4.90
2020,01,17,04,55,-4.90
2020,01,17,04,56,-4.90
2020,01,17,04,57,-4.90
2020,01,17,04,58,-4.90
2020,01,17,04,59,-4.90
2020,01,17,05,00,-4.90
2020,01,17,05,01,-4.90
2020,01,17,05,02,-4.90
2020,01,17,05,03,-5.00
2020,01,17,05,04,-5.00
2020,01,17,05,05,-5.00
2020,01,17,05,06,-5.00
2020,01,17,05,07,-5.10
2020,01,17,05,08,-5.10
2020,01,17,05,09,-5.10
2020,01,17,05,10,-5.10
2020,01,17,05,11,-5.10
2020,01,17,05,12,-5.10
2020,01,17,05,13,-5.20
2020,01,17,05,14,-5.20
2020,01,17,05,15,-5.30
2020,01,17,05,16,-5.30
2020,01,17,05,17,-5.30
2020,01,17,05,18,-5.30
2020,01,17,05,19,-5.40
2020,01,17,05,20,-5.40
2020,01,17,05,21,-5.40
2020,01,17,05,22,-5.40
2020,01,17,05,23,-5.40
2020,01,17,05,24,-5.40
2020,01,17,05,25,-5.40
2020,01,17,05,26,-5.40
2020,01,17,05,27,-5.40
2020,01,17,05,28,-5.40
2020,01,17,05,29,-5.30
2020,01,17,05,30,-5.30
2020,01,17,05,31,-5.30
2020,01,17,05,32,-5.30
2020,01,17,05,33,-5.30
2020,01,17,05,34,-5.20
2020,01,17,05,35,-5.20
2020,01,17,05,36,-5.10
2020,01,17,05,37,-5.10
2020,01,17,05,38,-5.10
2020,01,17,05,39,-5.00
2020,01,17,05,40,-5.00
2020,01,17,05,41,-4.90
2020,01,17,05,42,-4.90
2020,01,17,05,43,-4.90
2020,01,17,05,44,-4.90
2020,01,17,05,45,-4.80
2020,01,17,05,46,-4.80
2020,01,17,05,47,-4.80
2020,01,17,05,48,-4.80
2020,01,17,05,49,-4.80
2020,01,17,05,50,-4.80
2020,01,17,05,51,-4.80
2020,01,17,05,52,-4.80
2020,01,17,05,53,-4.80
2020,01,17,05,54,-4.80
2020,01,17,05,55,-4.80
2020,01,17,05,56,-4.80
2020,01,17,05,57,-4.80
2020,01,17,05,58,-4.90
2020,01,17,05,59,-4.90
2020,01,17,06,00,-4.90
2020,01,17,06,01,-4.80
2020,01,17,06,02,-4.80
2020,01,17,06,03,-4.70
2020,01,17,06,04,-4.70
2020,01,17,06,05,-4.70
2020,01,17,06,06,-4.70
2020,01,17,06,07,-4.70
2020,01,17,06,08,-4.70
2020,01,17,06,09,-4.60
2020,01,17,06,10,-4.70
2020,01,17,06,11,-4.60
2020,01,17,06,12,-4.60
2020,01,17,06,13,-4.60
2020,01,17,06,14,-4.60
2020,01,17,06,15,-4.60
2020,01,17,06,16,-4.60
2020,01,17,06,17,-4.60
2020,01,17,06,18,-4.60
2020,01,17,06,19,-4.60
2020,01,17,06,20,-4.60
2020,01,17,06,21,-4.60
2020,01,17,06,22,-4.70
2020,01,17,06,23,-4.70
2020,01,17,06,24,-4.70
2020,01,17,06,25,-4.70
2020,01,17,06,26,-4.70
2020,01,17,06,27,-4.70
2020,01,17,06,28,-4.70
2020,01,17,06,29,-4.70
2020,01,17,06,30,-4.70
2020,01,17,06,31,-4.70
2020,01,17,06,32,-4.70
2020,01,17,06,33,-4.70
2020,01,17,06,34,-4.70
2020,01,17,06,35,-4.70
2020,01,17,06,36,-4.70
2020,01,17,06,37,-4.70
2020,01,17,06,38,-4.70
2020,01,17,06,39,-4.70
2020,01,17,06,40,-4.70
2020,01,17,06,41,-4.60
2020,01,17,06,42,-4.60
2020,01,17,06,43,-4.60
2020,01,17,06,44,-4.50
2020,01,17,06,45,-4.50
2020,01,17,06,46,-4.50
2020,01,17,06,47,-4.40
2020,01,17,06,48,-4.40
2020,01,17,06,49,-4.40
2020,01,17,06,50,-4.40
2020,01,17,06,51,-4.40
2020,01,17,06,52,-4.50
2020,01,17,06,53,-4.50
2020,01,17,06,54,-4.50
2020,01,17,06,55,-4.50
2020,01,17,06,56,-4.60
2020,01,17,06,57,-4.60
2020,01,17,06,58,-4.60
2020,01,17,06,59,-4.60
2020,01,17,07,00,-4.60
2020,01,17,07,01,-4.60
2020,01,17,07,02,-4.60
2020,01,17,07,03,-4.70
2020,01,17,07,04,-4.60
2020,01,17,07,05,-4.60
2020,01,17,07,06,-4.60
2020,01,17,07,07,-4.60
2020,01,17,07,08,-4.70
2020,01,17,07,09,-4.70
2020,01,17,07,10,-4.70
2020,01,17,07,11,-4.70
2020,01,17,07,12,-4.70
2020,01,17,07,13,-4.70
2020,01,17,07,14,-4.70
2020,01,17,07,15,-4.70
2020,01,17,07,16,-4.80
2020,01,17,07,17,-4.80
2020,01,17,07,18,-4.80
2020,01,17,07,19,-4.80
2020,01,17,07,20,-4.90
2020,01,17,07,21,-4.90
2020,01,17,07,22,-4.90
2020,01,17,07,23,-4.90
2020,01,17,07,24,-4.90
2020,01,17,07,25,-4.90
2020,01,17,07,26,-4.90
2020,01,17,07,27,-4.90
2020,01,17,07,28,-4.90
2020,01,17,07,29,-4.90
2020,01,17,07,30,-5.00
2020,01,17,07,31,-5.00
2020,01,17,07,32,-5.00
2020,01,17,07,33,-5.10
2020,01,17,07,34,-5.10
2020,01,17,07,35,-5.10
2020,01,17,07,36,-5.10
2020,01,17,07,37,-5.10
2020,01,17,07,38,-5.10
2020,01,17,07,39,-5.10
2020,01,17,07,40,-5.10
2020,01,17,07,41,-5.10
2020,01,17,07,42,-5.10
2020,01,17,07,43,-5.20
2020,01,17,07,44,-5.20
2020,01,17,07,45,-5.20
2020,01,17,07,46,-5.20
2020,01,17,07,47,-5.20
2020,01,17,07,48,-5.20
2020,01,17,07,49,-5.20
2020,01,17,07,50,-5.20
2020,01,17,07,51,-5.20
2020,01,17,07,52,-5.20
2020,01,17,07,53,-5.30
2020,01,17,07,54,-5.20
2020,01,17,07,55,-5.20
2020,01,17,07,56,-5.20
2020,01,17,07,57,-5.20
2020,01,17,07,58,-5.20
2020,01,17,07,59,-5.20
2020,01,17,08,00,-5.20
2020,01,17,08,01,-5.20
2020,01,17,08,02,-5.20
2020,01,17,08,03,-5.20
2020,01,17,08,04,-5.20
2020,01,17,08,05,-5.20
2020,01,17,08,06,-5.20
2020,01,17,08,07,-5.20
2020,01,17,08,08,-5.20
2020,01,17,08,09,-5.20
2020,01,17,08,10,-5.20
2020,01,17,08,11,-5.10
2020,01,17,08,12,-5.10
2020,01,17,08,13,-5.10
2020,01,17,08,14,-5.10
2020,01,17,08,15,-5.10
2020,01,17,08,16,-5.10
2020,01,17,08,17,-5.10
2020,01,17,08,18,-5.10
2020,01,17,08,19,-5.10
2020,01,17,08,20,-5.20
2020,01,17,08,21,-5.20
2020,01,17,08,22,-5.20
2020,01,17,08,23,-5.20
2020,01,17,08,24,-5.20
2020,01,17,08,25,-5.20
2020,01,17,08,26,-5.10
2020,01,17,08,27,-5.10
2020,01,17,08,28,-5.10
2020,01,17,08,29,-5.00
2020,01,17,08,30,-5.00
2020,01,17,08,31,-4.90
2020,01,17,08,32,-4.90
2020,01,17,08,33,-4.90
2020,01,17,08,34,-4.90
2020,01,17,08,35,-4.90
2020,01,17,08,36,-4.90
2020,01,17,08,37,-5.00
2020,01,17,08,38,-5.00
2020,01,17,08,39,-5.00
2020,01,17,08,40,-5.00
2020,01,17,08,41,-5.00
2020,01,17,08,42,-5.00
2020,01,17,08,43,-4.90
2020,01,17,08,44,-5.00
2020,01,17,08,45,-5.00
2020,01,17,08,46,-4.90
2020,01,17,08,47,-4.90
2020,01,17,08,48,-4.90
2020,01,17,08,49,-4.90
2020,01,17,08,50,-4.90
2020,01,17,08,51,-4.90
2020,01,17,08,52,-4.80
2020,01,17,08,53,-4.80
2020,01,17,08,54,-4.80
2020,01,17,08,55,-4.80
2020,01,17,08,56,-4.80
2020,01,17,08,57,-4.70
2020,01,17,08,58,-4.70
2020,01,17,08,59,-4.70
2020,01,17,09,00,-4.70
2020,01,17,09,01,-4.70
2020,01,17,09,02,-4.70
2020,01,17,09,03,-4.70
2020,01,17,09,04,-4.70
2020,01,17,09,05,-4.60
2020,01,17,09,06,-4.60
2020,01,17,09,07,-4.60
2020,01,17,09,08,-4.60
2020,01,17,09,09,-4.50
2020,01,17,09,10,-4.50
2020,01,17,09,11,-4.50
2020,01,17,09,12,-4.40
2020,01,17,09,13,-4.40
2020,01,17,09,14,-4.40
2020,01,17,09,15,-4.40
2020,01,17,09,16,-4.40
2020,01,17,09,17,-4.40
2020,01,17,09,18,-4.30
2020,01,17,09,19,-4.30
2020,01,17,09,20,-4.30
2020,01,17,09,21,-4.30
2020,01,17,09,22,-4.30
2020,01,17,09,23,-4.20
2020,01,17,09,24,-4.20
2020,01,17,09,25,-4.20
2020,01,17,09,26,-4.20
2020,01,17,09,27,-4.20
2020,01,17,09,28,-4.20
2020,01,17,09,29,-4.20
2020,01,17,09,30,-4.20
2020,01,17,09,31,-4.20
2020,01,17,09,32,-4.20
2020,01,17,09,33,-4.20
2020,01,17,09,34,-4.20
2020,01,17,09,35,-4.20
2020,01,17,09,36,-4.20
2020,01,17,09,37,-4.20
2020,01,17,09,38,-4.20
2020,01,17,09,39,-4.20
2020,01,17,09,40,-4.20
2020,01,17,09,41,-4.20
2020,01,17,09,42,-4.20
2020,01,17,09,43,-4.20
2020,01,17,09,44,-4.20
2020,01,17,09,45,-4.10
2020,01,17,09,46,-4.10
2020,01,17,09,47,-4.10
2020,01,17,09,48,-4.10
2020,01,17,09,49,-4.00
2020,01,17,09,50,-4.00
2020,01,17,09,51,-4.00
2020,01,17,09,52,-4.00
2020,01,17,09,53,-4.00
2020,01,17,09,54,-4.00
2020,01,17,09,55,-4.00
2020,01,17,09,56,-4.00
2020,01,17,09,57,-4.10
2020,01,17,09,58,-4.10
2020,01,17,09,59,-4.10
2020,01,17,10,00,-4.10
2020,01,17,10,01,-4.00
2020,01,17,10,02,-4.00
2020,01,17,10,03,-4.00
2020,01,17,10,04,-4.00
2020,01,17,10,05,-4.00
2020,01,17,10,06,-3.90
2020,01,17,10,07,-3.90
2020,01,17,10,08,-3.90
2020,01,17,10,09,-3.80
2020,01,17,10,10,-3.80
2020,01,17,10,11,-3.70
2020,01,17,10,12,-3.70
2020,01,17,10,13,-3.70
2020,01,17,10,14,-3.70
2020,01,17,10,15,-3.70
2020,01,17,10,16,-3.60
2020,01,17,10,17,-3.60
2020,01,17,10,18,-3.60
2020,01,17,10,19,-3.50
2020,01,17,10,20,-3.50
2020,01,17,10,21,-3.40
2020,01,17,10,22,-3.40
2020,01,17,10,23,-3.30
2020,01,17,10,24,-3.30
2020,01,17,10,25,-3.20
2020,01,17,10,26,-3.20
2020,01,17,10,27,-3.10
2020,01,17,10,28,-3.10
2020,01,17,10,29,-3.00
2020,01,17,10,30,-3.00
2020,01,17,10,31,-2.90
2020,01,17,10,32,-2.90
2020,01,17,10,33,-2.80
2020,01,17,10,34,-2.80
2020,01,17,10,35,-2.70
2020,01,17,10,36,-2.70
2020,01,17,10,37,-2.70
2020,01,17,10,38,-2.70
2020,01,17,10,39,-2.70
2020,01,17,10,40,-2.70
2020,01,17,10,41,-2.60
2020,01,17,10,42,-2.60
2020,01,17,10,43,-2.60
2020,01,17,10,44,-2.60
2020,01,17,10,45,-2.60
2020,01,17,10,46,-2.60
2020,01,17,10,47,-2.60
2020,01,17,10,48,-2.50
2020,01,17,10,49,-2.50
2020,01,17,10,50,-2.40
2020,01,17,10,51,-2.40
2020,01,17,10,52,-2.40
2020,01,17,10,53,-2.30
2020,01,17,10,54,-2.30
2020,01,17,10,55,-2.20
2020,01,17,10,56,-2.20
2020,01,17,10,57,-2.10
2020,01,17,10,58,-2.10
2020,01,17,10,59,-2.10
2020,01,17,11,00,-2.10
2020,01,17,11,01,-2.00
2020,01,17,11,02,-2.00
2020,01,17,11,03,-1.90
2020,01,17,11,04,-1.90
2020,01,17,11,05,-1.90
2020,01,17,11,06,-1.90
2020,01,17,11,07,-1.90
2020,01,17,11,08,-1.90
2020,01,17,11,09,-1.80
2020,01,17,11,10,-1.80
2020,01,17,11,11,-1.80
2020,01,17,11,12,-1.80
2020,01,17,11,13,-1.80
2020,01,17,11,14,-1.80
2020,01,17,11,15,-1.70
2020,01,17,11,16,-1.70
2020,01,17,11,17,-1.70
2020,01,17,11,18,-1.70
2020,01,17,11,19,-1.60
2020,01,17,11,20,-1.60
2020,01,17,11,21,-1.60
2020,01,17,11,22,-1.60
2020,01,17,11,23,-1.50
2020,01,17,11,24,-1.50
2020,01,17,11,25,-1.40
2020,01,17,11,26,-1.40
2020,01,17,11,27,-1.40
2020,01,17,11,28,-1.40
2020,01,17,11,29,-1.30
2020,01,17,11,30,-1.30
2020,01,17,11,31,-1.30
2020,01,17,11,32,-1.20
2020,01,17,11,33,-1.20
2020,01,17,11,34,-1.20
2020,01,17,11,35,-1.20
2020,01,17,11,36,-1.20
2020,01,17,11,37,-1.10
2020,01,17,11,38,-1.10
2020,01,17,11,39,-1.10
2020,01,17,11,40,-1.10
2020,01,17,11,41,-1.10
2020,01,17,11,42,-1.10
2020,01,17,11,43,-1.10
2020,01,17,11,44,-1.10
2020,01,17,11,45,-1.10
2020,01,17,11,46,-1.10
2020,01,17,11,47,-1.10
2020,01,17,11,48,-1.10
2020,01,17,11,49,-1.10
2020,01,17,11,50,-1.10
2020,01,17,11,51,-1.20
2020,01,17,11,52,-1.10
2020,01,17,11,53,-1.20
2020,01,17,11,54,-1.10
2020,01,17,11,55,-1.20
2020,01,17,11,56,-1.10
2020,01,17,11,57,-1.10
2020,01,17,11,58,-1.10
2020,01,17,11,59,-1.10
2020,01,17,12,00,-1.10
2020,01,17,12,01,-1.10
2020,01,17,12,02,-1.10
2020,01,17,12,03,-1.00
2020,01,17,12,04,-1.00
2020,01,17,12,05,-0.90
2020,01,17,12,06,-0.90
2020,01,17,12,07,-0.80
2020,01,17,12,08,-0.80
2020,01,17,12,09,-0.80
2020,01,17,12,10,-0.80
2020,01,17,12,11,-0.70
2020,01,17,12,12,-0.70
2020,01,17,12,13,-0.70
2020,01,17,12,14,-0.70
2020,01,17,12,15,-0.70
2020,01,17,12,16,-0.70
2020,01,17,12,17,-0.70
2020,01,17,12,18,-0.70
2020,01,17,12,19,-0.70
2020,01,17,12,20,-0.70
2020,01,17,12,21,-0.70
2020,01,17,12,22,-0.70
2020,01,17,12,23,-0.80
2020,01,17,12,24,-0.80
2020,01,17,12,25,-0.80
2020,01,17,12,26,-0.80
2020,01,17,12,27,-0.80
2020,01,17,12,28,-0.80
2020,01,17,12,29,-0.80
2020,01,17,12,30,-0.80
2020,01,17,12,31,-0.70
2020,01,17,12,32,-0.70
2020,01,17,12,33,-0.70
2020,01,17,12,34,-0.70
2020,01,17,12,35,-0.70
2020,01,17,12,36,-0.70
2020,01,17,12,37,-0.70
2020,01,17,12,38,-0.70
2020,01,17,12,39,-0.70
2020,01,17,12,40,-0.60
2020,01,17,12,41,-0.60
2020,01,17,12,42,-0.60
2020,01,17,12,43,-0.60
2020,01,17,12,44,-0.60
2020,01,17,12,45,-0.60
2020,01,17,12,46,-0.60
2020,01,17,12,47,-0.50
2020,01,17,12,48,-0.50
2020,01,17,12,49,-0.40
2020,01,17,12,50,-0.40
2020,01,17,12,51,-0.40
2020,01,17,12,52,-0.30
2020,01,17,12,53,-0.30
2020,01,17,12,54,-0.30
2020,01,17,12,55,-0.30
2020,01,17,12,56,-0.30
2020,01,17,12,57,-0.20
2020,01,17,12,58,-0.20
2020,01,17,12,59,-0.20
2020,01,17,13,00,-0.20
2020,01,17,13,01,-0.20
2020,01,17,13,02,-0.20
2020,01,17,13,03,-0.20
2020,01,17,13,04,-0.20
2020,01,17,13,05,-0.20
2020,01,17,13,06,-0.20
2020,01,17,13,07,-0.20
2020,01,17,13,08,-0.20
2020,01,17,13,09,-0.20
2020,01,17,13,10,-0.10
2020,01,17,13,11,-0.10
2020,01,17,13,12,-0.10
2020,01,17,13,13,0.00
2020,01,17,13,14,0.00
2020,01,17,13,15,0.00
2020,01,17,13,16,-0.10
2020,01,17,13,17,-0.10
2020,01,17,13,18,-0.10
2020,01,17,13,19,-0.10
2020,01,17,13,20,0.00
2020,01,17,13,21,-0.10
2020,01,17,13,22,-0.10
2020,01,17,13,23,-0.10
2020,01,17,13,24,0.00
2020,01,17,13,25,0.00
2020,01,17,13,26,0.10
2020,01,17,13,27,0.10
2020,01,17,13,28,0.20
2020,01,17,13,29,0.20
2020,01,17,13,30,0.20
2020,01,17,13,31,0.20
2020,01,17,13,32,0.30
2020,01,17,13,33,0.30
2020,01,17,13,34,0.30
2020,01,17,13,35,0.30
2020,01,17,13,36,0.40
2020,01,17,13,37,0.40
2020,01,17,13,38,0.40
2020,01,17,13,39,0.50
2020,01,17,13,40,0.50
2020,01,17,13,41,0.60
2020,01,17,13,42,0.60
2020,01,17,13,43,0.70
2020,01,17,13,44,0.70
2020,01,17,13,45,0.80
2020,01,17,13,46,0.90
2020,01,17,13,47,0.90
2020,01,17,13,48,0.90
2020,01,17,13,49,1.00
2020,01,17,13,50,1.10
2020,01,17,13,51,1.10
2020,01,17,13,52,1.20
2020,01,17,13,53,1.20
2020,01,17,13,54,1.30
2020,01,17,13,55,1.30
2020,01,17,13,56,1.30
2020,01,17,13,57,1.30
2020,01,17,13,58,1.30
2020,01,17,13,59,1.30
2020,01,17,14,00,1.30
2020,01,17,14,01,1.40
2020,01,17,14,02,1.40
2020,01,17,14,03,1.40
2020,01,17,14,04,1.40
2020,01,17,14,05,1.50
2020,01,17,14,06,1.50
2020,01,17,14,07,1.50
2020,01,17,14,08,1.50
2020,01,17,14,09,1.40
2020,01,17,14,10,1.40
2020,01,17,14,11,1.30
2020,01,17,14,12,1.30
2020,01,17,14,13,1.30
2020,01,17,14,14,1.20
2020,01,17,14,15,1.20
2020,01,17,14,16,1.20
2020,01,17,14,17,1.20
2020,01,17,14,18,1.10
2020,01,17,14,19,1.10
2020,01,17,14,20,1.10
2020,01,17,14,21,1.10
2020,01,17,14,22,1.10
2020,01,17,14,23,1.10
2020,01,17,14,24,1.10
2020,01,17,14,25,1.10
2020,01,17,14,26,1.10
2020,01,17,14,27,1.10
2020,01,17,14,28,1.10
2020,01,17,14,29,1.10
2020,01,17,14,30,1.10
2020,01,17,14,31,1.10
2020,01,17,14,32,1.10
2020,01,17,14,33,1.10
2020,01,17,14,34,1.10
2020,01,17,14,35,1.10
2020,01,17,14,36,1.10
2020,01,17,14,37,1.10
2020,01,17,14,38,1.10
2020,01,17,14,39,1.10
2020,01,17,14,40,1.10
2020,01,17,14,41,1.10
2020,01,17,14,42,1.10
2020,01,17,14,43,1.10
2020,01,17,14,44,1.10
2020,01,17,14,45,1.10
2020,01,17,14,46,1.10
2020,01,17,14,47,1.10
2020,01,17,14,48,1.10
2020,01,17,14,49,1.10
2020,01,17,14,50,1.20
2020,01,17,14,51,1.20
2020,01,17,14,52,1.20
2020,01,17,14,53,1.20
2020,01,17,14,54,1.20
2020,01,17,14,55,1.20
2020,01,17,14,56,1.20
2020,01,17,14,57,1.30
2020,01,17,14,58,1.30
2020,01,17,14,59,1.30
2020,01,17,15,00,1.30
2020,01,17,15,01,1.30
2020,01,17,15,02,1.30
2020,01,17,15,03,1.30
2020,01,17,15,04,1.40
2020,01,17,15,05,1.40
2020,01,17,15,06,1.40
2020,01,17,15,07,1.40
2020,01,17,15,08,1.40
2020,01,17,15,09,1.40
2020,01,17,15,10,1.40
2020,01,17,15,11,1.40
2020,01,17,15,12,1.50
2020,01,17,15,13,1.50
2020,01,17,15,14,1.50
2020,01,17,15,15,1.50
2020,01,17,15,16,1.50
2020,01,17,15,17,1.50
2020,01,17,15,18,1.50
2020,01,17,15,19,1.60
2020,01,17,15,20,1.60
2020,01,17,15,21,1.60
2020,01,17,15,22,1.60
2020,01,17,15,23,1.60
2020,01,17,15,24,1.60
2020,01,17,15,25,1.60
2020,01,17,15,26,1.60
2020,01,17,15,27,1.60
2020,01,17,15,28,1.60
2020,01,17,15,29,1.60
2020,01,17,15,30,1.60
2020,01,17,15,31,1.60
2020,01,17,15,32,1.60
2020,01,17,15,33,1.60
2020,01,17,15,34,1.60
2020,01,17,15,35,1.60
2020,01,17,15,36,1.60
2020,01,17,15,37,1.60
2020,01,17,15,38,1.60
2020,01,17,15,39,1.60
2020,01,17,15,40,1.60
2020,01,17,15,41,1.60
2020,01,17,15,42,1.60
2020,01,17,15,43,1.60
2020,01,17,15,44,1.60
2020,01,17,15,45,1.60
2020,01,17,15,46,1.60
2020,01,17,15,47,1.60
2020,01,17,15,48,1.60
2020,01,17,15,49,1.60
2020,01,17,15,50,1.60
2020,01,17,15,51,1.60
2020,01,17,15,52,1.60
2020,01,17,15,53,1.70
2020,01,17,15,54,1.70
2020,01,17,15,55,1.70
2020,01,17,15,56,1.70
2020,01,17,15,57,1.70
2020,01,17,15,58,1.80
2020,01,17,15,59,1.80
2020,01,17,16,00,1.80
2020,01,17,16,01,1.80
2020,01,17,16,02,1.80
2020,01,17,16,03,1.80
2020,01,17,16,04,1.80
2020,01,17,16,05,1.90
2020,01,17,16,06,1.90
2020,01,17,16,07,1.90
2020,01,17,16,08,1.90
2020,01,17,16,09,1.90
2020,01,17,16,10,1.90
2020,01,17,16,11,2.00
2020,01,17,16,12,2.00
2020,01,17,16,13,2.00
2020,01,17,16,14,2.00
2020,01,17,16,15,2.10
2020,01,17,16,16,2.10
2020,01,17,16,17,2.10
2020,01,17,16,18,2.10
2020,01,17,16,19,2.10
2020,01,17,16,20,2.10
2020,01,17,16,21,2.10
2020,01,17,16,22,2.10
2020,01,17,16,23,2.10
2020,01,17,16,24,2.10
2020,01,17,16,25,2.10
2020,01,17,16,26,2.10
2020,01,17,16,27,2.10
2020,01,17,16,28,2.10
2020,01,17,16,29,2.10
2020,01,17,16,30,2.10
2020,01,17,16,31,2.10
2020,01,17,16,32,2.10
2020,01,17,16,33,2.10
2020,01,17,16,34,2.10
2020,01,17,16,35,2.10
2020,01,17,16,36,2.10
2020,01,17,16,37,2.00
2020,01,17,16,38,2.00
2020,01,17,16,39,2.00
2020,01,17,16,40,2.00
2020,01,17,16,41,2.00
2020,01,17,16,42,2.00
2020,01,17,16,43,2.00
2020,01,17,16,44,2.00
2020,01,17,16,45,2.00
2020,01,17,16,46,2.00
2020,01,17,16,47,2.00
2020,01,17,16,48,2.00
2020,01,17,16,49,2.00
2020,01,17,16,50,2.00
2020,01,17,16,51,2.00
2020,01,17,16,52,2.00
2020,01,17,16,53,1.90
2020,01,17,16,54,1.90
2020,01,17,16,55,1.90
2020,01,17,16,56,1.90
2020,01,17,16,57,1.90
2020,01,17,16,58,1.90
2020,01,17,16,59,1.90
2020,01,17,17,00,1.90
2020,01,17,17,01,1.90
2020,01,17,17,02,1.90
2020,01,17,17,03,1.80
2020,01,17,17,04,1.80
2020,01,17,17,05,1.80
2020,01,17,17,06,1.80
2020,01,17,17,07,1.80
2020,01,17,17,08,1.80
2020,01,17,17,09,1.80
2020,01,17,17,10,1.80
2020,01,17,17,11,1.80
2020,01,17,17,12,1.80
2020,01,17,17,13,1.70
2020,01,17,17,14,1.70
2020,01,17,17,15,1.70
2020,01,17,17,16,1.70
2020,01,17,17,17,1.70
2020,01,17,17,18,1.70
2020,01,17,17,19,1.70
2020,01,17,17,20,1.60
2020,01,17,17,21,1.60
2020,01,17,17,22,1.60
2020,01,17,17,23,1.60
2020,01,17,17,24,1.60
2020,01,17,17,25,1.60
2020,01,17,17,26,1.60
2020,01,17,17,27,1.50
2020,01,17,17,28,1.50
2020,01,17,17,29,1.50
2020,01,17,17,30,1.50